Hourly Data Report for September 05, 2017

All times are specified in Local Standard Time (LST). Add 1 hour to adjust for Daylight Saving Time where and when it is observed.

KAMLOOPS A
BRITISH COLUMBIA

50°42'09.000" N
120°26'55.000" W
345.30 m
1163781
71887
YKA

Download Data

Hourly Data (September 2017)
Hourly Data Report for September 5, 2017
Temp Definition
°C
Dew Point Temp Definition
°C
Rel Hum Definition
%
Wind Dir Definition
10's deg

Wind Spd Definition
km/h
Visibility Definition
km
Stn Press Definition
kPa
Hmdx Definition


Wind Chill Definition


Weather Definition


TIME
00:00 Legend Double Dagger 18.4 10.8 61 36 3 24.1 97.88     LegendNANA
01:00 Legend Double Dagger 15.8 9.2 65 13 3 24.1 97.92     Mainly Clear
02:00 Legend Double Dagger 17.2 10.0 62 16 3 24.1 97.94     LegendNANA
03:00 Legend Double Dagger 15.3 8.7 64 36 1 24.1 97.95     LegendNANA
04:00 Legend Double Dagger 15.5 10.0 70 17 3 24.1 97.98     Smoke
05:00 Legend Double Dagger 14.4 8.0 65 10 3 48.3 97.98     LegendNANA
06:00 Legend Double Dagger 12.7 7.6 71 12 5 48.3 98.01     LegendNANA
07:00 Legend Double Dagger 15.9 8.1 59 6 4 48.3 98.02     Mostly Cloudy
08:00 Legend Double Dagger 17.3 6.8 50 10 9 48.3 98.01     LegendNANA
09:00 Legend Double Dagger 18.5 6.8 46 8 10 48.3 98.01     LegendNANA
10:00 Legend Double Dagger 20.3 7.2 42 8 10 48.3 97.97     Mostly Cloudy
11:00 Legend Double Dagger 22.3 6.8 36 11 17 48.3 97.88     LegendNANA
12:00 Legend Double Dagger 23.3 7.1 35 10 18 32.2 97.81     LegendNANA
13:00 Legend Double Dagger 23.8 7.8 35 11 16 48.3 97.73     Cloudy
14:00 Legend Double Dagger 25.1 7.8 33 10 15 24.1 97.65 25   LegendNANA
15:00 Legend Double Dagger 27.0 7.9 29 9 13 32.2 97.60 27   LegendNANA
16:00 Legend Double Dagger 26.8 7.9 30 5 11 32.2 97.57 27   Cloudy
17:00 Legend Double Dagger 25.5 10.1 37 36 6 32.2 97.54 27   LegendNANA
18:00 Legend Double Dagger 24.7 9.7 38 22 5 24.1 97.52 26   LegendNANA
19:00 Legend Double Dagger 22.7 12.2 51 36 2 24.1 97.52 25   Cloudy
20:00 Legend Double Dagger 22.1 13.1 56 19 8 24.1 97.48 25   LegendNANA
21:00 Legend Double Dagger 22.1 12.0 52 17 8 24.1 97.47     LegendNANA
22:00 Legend Double Dagger 20.9 12.5 58 23 8 24.1 97.54     Mostly Cloudy
23:00 Legend Double Dagger 21.4 11.9 54 36 1 24.1 97.56     LegendNANA

Notes on Data Quality.

Legend

  • E = Estimated
  • M = Missing
  • NA = Not Available
  • ‡ = Partner data that is not subject to review by the National Climate Archives
Date modified: